Volver al catálogo

ATLAS 5 CENTAUR DEB

LostHEO
NORAD 43961·DEBRIS·🇺🇸 United States

Lanzado Sep 17, 2014 desde Cape Canaveral Space Force Station

Loading…

Próximos Pases (próximas 24 horas)

TLE

ObsoletoSource: Space-Track

Época: Sep 17, 2025, 08:56 UTC

1 43961U 14055Q   25260.37286382 -.00000037  00000-0  00000-0 0  9993
2 43961  19.6248 168.9468 4877838 119.5846 297.4320  1.85324241 47633

Sigue ATLAS 5 CENTAUR DEB en tiempo real con AllMySat

Download on the App Store